CZ-6A DEB

Satellite information

Favourite Embed

Satellite Type and Status

DEBRISIN ORBIT

Key statistics

Satellite CZ-6A DEB at a glance.

Uptime

335

Days in orbit

Revolutions

≈ 14.2

Per day

Orbit

LEO

Low Earth Orbit

Inclination

89.0

Latest

Satellite identification and parameters

Extended collection of information and parameters for CZ-6A DEB.

Object identification

Identified? True

Debris? True

Object name: CZ-6A DEB

International designator: 2024-140RZ

Object number (NORAD): 61264

Object ID (CCSDS): 61264

Country: PEOPLES REPUBLIC OF CHINA (PRC)

Current information (Y/N): Y

RCS size: SMALL

Orbital parameters

Period: 101.2 minutes

Inclination: 89.0157 deg

SMA: 7193.633 km

Apoapsis: 845.786 km

Periapsis: 785.211 km

RAAN: 314.0459 deg

Eccentricy: 0.0042103

Argument of periapsis: 208.4025 deg

Mean anomaly: 151.4872 deg

Mean motion: 14.229195 rev/day

Mean motion (dot): 0.00002586 rev/day2

B* drag term: 0.0011341 1/REarth

Two-line elements (TLE)

Creation date: July 6, 2025, 6:05 p.m.

Reference frame: TEME

Reference center: EARTH

Epoch: July 6, 2025, 7:57 a.m. UTC

TLE line 0: 0 CZ-6A DEB

TLE line 1: 1 61264U 24140RZ 25187.33132812 .00002586 00000-0 11341-2 0 9999

TLE line 2: 2 61264 89.0157 314.0459 0042103 208.4025 151.4872 14.22919500 44580

Live tracking on map

Real-time ground track for satellite CZ-6A DEB.

In-orbit conjunctions

A list of the most updated potential collisions computed for object CZ-6A DEB.

Target Orbit TCA Probability of collision Miss distance Type
PEGASUS R/B LEO 2025-06-08 02:42:05 0.0001374611 526.0 (m) ROCKET BODY
FENGYUN 1C DEB SSO 2025-02-27 16:30:32 0.0001414759 747.0 (m) DEBRIS
FENGYUN 1C DEB SSO 2025-01-30 01:53:19 0.0001596472 715.0 (m) DEBRIS
COSMOS 2251 DEB LEO 2025-01-09 20:46:24 0.0001363852 487.0 (m) DEBRIS
METEOR 1-17 DEB LEO 2024-11-16 04:40:37 0.000201075 999.0 (m) DEBRIS

Associated space launch

18 Low Earth Orbit communication satellites with Ku, Q and V band payloads for the G60 constellation operated by Shanghai Spacecom Satellite Technology (SSST) with funding backed by the Shanghai local government. Initial constellation will consist of 1296 satellites by 2027 with long term plans to expand it to 12000 satellites.

CZ-6A DEB was lifted into orbit during the mission ‘Long March 6A | G60 Polar Group 01’, on board a Long March 6A space rocket.

The launch took place on Aug. 6, 2024, 6:42 a.m. from Launch Complex 9A.

For more information about the launch, click the button.

Launch to space Long March 6A | G60 Polar Group 01
Long March 6A | G60 Polar Group 01

Agency: N/A

Status: Launch Successful

Launch date: Aug. 6, 2024, 6:42 a.m. UTC

Rocket: Long March 6A

Launch pad: Launch Complex 9A

Location: Taiyuan Satellite Launch Center, People's Republic of China

...

Latest news about this satellite

News about space launch
Brightness of first Chinese broadband constellation satellites alarms astronomers

The first satellites of a Chinese broadband constellation are significantly brighter than those of Western systems, posing a new challenge for astronomers.

News about space launch
Chinese rocket stage breaks up into cloud of more than 700 pieces of space debris

HELSINKI — A Chinese Long March 6A rocket’s upper stage has fragmented into a cloud of over 700 pieces of space debris, adding to concerns about long-term orbital safety. China […]

News about space launch
China's Thousand Sails Megaconstellation Kicks Off with Dangerous Debris Field

China's Thousand Sails Megaconstellation Kicks Off with Dangerous Debris Field


Newsletter sign-up

Weekly statistics, charts and insights to help you stay on top of the space industry.